Lapse_Rate
1.9 1.4 1.0 0.7 0.6 0.4 0.2 0.1 -0.2 -0.3 -0.1 -0.1 -0.1 -0.3 -0.6 -0.8 -1.0 -1.0 -1.1 -0.9 -0.6 -0.4 -0.4 -0.3 -0.1 0.2 2.6 5.8 6.9 6.5 5.5 6.1 6.4 6.9 7.5 7.6 6.8 6.6 6.5 6.3 6.7 6.5 6.4 6.7 6.7 6.9 6.6
2.0 1.7 1.3 0.9 0.7 0.4 0.3 0.1 -0.1 -0.2 -0.1 -0.2 -0.4 -0.7 -1.1 -1.2 -1.2 -1.3 -1.3 -1.3 -1.0 -0.6 -0.3 -0.1 0.1 0.1 4.1 6.6 6.5 6.6 6.6 7.0 7.0 7.6 8.3 7.5 7.1 6.9 6.5 6.5 6.5 6.6 6.3 6.1 6.3 6.3 6.5
2.3 1.8 1.3 1.1 0.9 0.7 0.6 0.2 -0.1 -0.3 -0.3 -0.4 -0.6 -0.9 -1.2 -1.3 -1.4 -1.4 -1.4 -1.4 -1.2 -0.8 -0.3 0.2 0.9 3.6 6.6 5.9 7.2 7.0 7.5 6.8 6.9 6.7 8.0 6.8 6.6 6.8 6.6 6.4 6.5 6.6 6.5 6.5 6.0 6.0 6.5
2.2 2.0 1.9 1.5 1.2 1.0 0.7 0.4 0.2 -0.1 -0.3 -0.6 -0.8 -1.0 -1.3 -1.5 -1.4 -1.4 -1.5 -1.3 -1.1 -0.5 0.3 1.0 1.7 5.2 6.8 6.5 6.4 8.2 8.8 8.6 7.8 7.4 6.9 6.5 6.7 7.0 7.1 6.9 6.5 6.5 6.5 6.5 6.5 6.1 6.3
1.9 1.8 1.6 1.4 1.2 1.0 0.8 0.5 0.2 -0.1 -0.1 -0.3 -0.7 -1.0 -1.3 -1.4 -1.4 -1.3 -1.2 -0.8 -0.2 0.6 1.5 2.1 3.9 5.9 6.9 6.4 8.1 7.7 8.1 8.5 7.9 8.2 7.2 7.6 7.2 6.9 6.8 6.5 6.5 6.5 6.5 6.5 6.5 6.3 6.5
1.6 1.3 1.2 1.2 1.0 0.8 0.8 0.5 0.1 0.0 -0.1 -0.3 -0.7 -1.1 -1.3 -1.3 -1.1 -1.1 -0.7 -0.2 1.3 1.3 2.6 5.6 7.0 6.8 7.2 7.5 7.5 7.1 8.3 7.7 8.2 8.1 7.4 6.8 6.5 6.5 6.5 6.5 6.5 6.5 6.5 6.5 6.5 6.5 6.5
1.9 1.3 0.9 0.8 0.7 0.6 0.5 0.2 0.1 -0.0 -0.1 -0.5 -0.9 -1.1 -1.0 -1.1 -0.9 -0.5 0.4 1.4 4.3 5.7 5.9 6.1 7.2 7.4 7.9 8.3 7.1 8.5 8.2 8.3 8.0 7.3 6.5 6.7 6.5 6.5 6.5 6.5 6.5 6.5 6.5 6.5 6.5 6.5 6.5
2.1 1.8 1.4 0.8 0.6 0.4 0.0 -0.0 0.1 -0.1 -0.2 -0.4 -0.6 -0.8 -0.7 -0.7 -0.6 0.6 0.6 4.6 2.3 3.5 6.5 6.7 7.1 7.8 7.6 7.1 7.3 7.9 7.7 7.1 6.9 6.5 6.5 6.5 6.5 6.5 6.5 6.5 6.5 6.5 6.5 6.5 6.5 6.5 6.5
2.8 1.9 1.5 1.2 0.6 0.2 0.2 0.0 0.1 0.1 -0.0 -0.4 -0.6 -0.6 -0.4 -0.2 0.4 2.2 2.5 2.0 3.0 4.0 6.1 7.1 7.2 7.7 7.4 7.2 7.1 7.2 7.7 7.3 6.5 6.5 6.5 6.5 6.5 6.5 6.5 6.5 6.5 6.5 6.5 6.5 6.5 6.5 6.5
1.7 2.2 1.8 1.1 0.6 0.1 0.0 0.0 0.1 0.1 -0.1 -0.3 -0.5 -0.4 -0.2 0.0 2.8 3.7 3.1 3.2 3.4 4.0 6.5 6.5 6.7 6.8 7.7 7.5 6.7 7.4 7.7 6.9 6.6 6.5 6.5 6.5 6.5 6.5 6.5 6.5 6.5 6.5 6.5 6.5 6.5 6.5 6.5
1.8 1.1 1.3 1.3 0.7 0.1 0.2 0.2 0.1 0.0 -0.1 -0.3 -0.5 -0.3 -0.0 0.6 3.7 4.3 3.0 3.1 3.6 3.8 6.5 6.5 6.7 7.3 7.3 6.8 7.0 7.0 7.0 7.2 6.5 6.5 6.5 6.5 6.5 6.5 6.5 6.5 6.5 6.5 6.5 6.5 6.5 6.5 6.5
1.4 1.0 0.4 0.5 0.5 0.3 0.3 0.2 0.1 0.1 0.1 -0.2 -0.3 -0.1 0.8 3.5 3.8 2.6 2.7 3.2 3.6 6.5 6.5 6.5 6.7 6.5 6.5 6.8 6.8 7.0 7.1 7.0 7.4 6.5 6.5 6.5 6.3 6.5 6.5 6.5 6.5 6.5 6.5 6.5 6.5 6.5 6.5
2.1 1.7 0.9 0.1 0.2 0.3 0.4 0.4 0.5 0.4 0.1 -0.1 -0.2 -0.0 2.4 4.1 4.2 2.8 2.9 3.9 6.5 6.5 6.5 6.5 6.5 6.5 6.5 6.5 6.5 6.5 6.5 6.5 6.5 6.5 6.5 6.5 6.5 6.5 6.6 6.5 6.5 6.5 6.5 6.5 6.5 6.5 6.5
2.7 2.0 1.4 0.9 0.3 0.3 0.6 0.5 0.6 0.6 0.3 -0.1 -0.2 0.1 2.2 3.2 2.8 2.7 3.3 6.4 6.5 6.5 6.5 6.5 6.5 6.5 6.5 6.5 6.5 6.5 6.5 6.5 6.5 6.5 6.5 6.5 6.5 6.5 6.5 6.5 6.5 6.5 6.5 6.5 6.5 6.5 6.5
3.6 2.5 1.7 1.2 1.1 0.6 0.5 0.6 0.6 0.7 0.4 0.2 -0.3 2.3 3.9 2.8 2.5 3.0 5.2 6.5 6.5 6.5 6.5 6.5 6.5 6.5 6.5 6.5 6.5 6.5 6.5 6.5 6.5 6.5 6.5 6.5 6.5 6.5 6.5 6.5 6.5 6.5 6.5 6.5 6.5 6.5 6.5
3.7 3.0 2.0 1.4 1.2 0.8 0.6 0.7 0.7 0.7 0.5 0.4 2.7 5.3 6.1 3.9 3.1 3.3 6.3 6.5 6.5 6.6 6.6 6.5 6.5 6.5 6.5 6.5 6.5 6.5 6.5 6.5 6.5 6.5 6.3 6.5 6.5 6.5 6.5 6.4 6.3 6.5 6.5 6.5 6.5 6.5 6.5
3.5 2.9 2.1 1.5 1.1 1.1 0.9 0.9 0.7 0.6 0.4 0.4 2.9 6.3 3.9 3.7 3.1 5.2 6.5 6.5 6.5 7.1 7.0 6.5 6.5 6.5 6.5 6.5 6.5 6.5 6.5 6.5 6.5 6.5 6.4 6.5 6.5 6.5 6.5 6.5 6.5 6.5 6.5 6.5 6.5 6.5 6.5
3.8 2.9 2.1 1.5 0.8 1.0 1.0 0.9 0.9 0.7 0.4 0.3 4.6 6.4 3.8 3.6 6.0 5.5 6.5 6.5 5.5 6.7 7.1 6.6 6.6 6.5 6.5 6.5 6.5 6.5 6.5 6.5 6.9 6.7 6.5 6.5 6.5 6.5 6.5 6.5 6.5 6.5 6.5 6.5 6.5 6.5 6.5
3.6 3.2 2.0 1.7 1.2 1.2 1.1 0.8 0.8 0.7 0.6 2.2 5.8 5.7 4.6 4.0 6.5 6.5 6.5 6.5 6.8 6.5 6.5 6.5 6.5 6.5 6.5 6.5 6.5 6.5 6.5 6.8 7.0 6.6 6.5 6.5 6.5 6.5 6.5 6.5 6.5 6.5 6.5 6.5 6.5 6.5 6.5
3.7 3.1 2.1 1.7 1.4 1.5 1.3 0.9 0.7 0.5 0.5 1.4 5.3 6.5 5.7 5.8 6.2 6.5 6.5 6.5 6.5 7.0 6.7 6.8 6.6 6.7 6.5 6.5 6.5 6.5 6.5 6.6 6.9 6.8 7.1 6.7 6.5 6.5 6.5 6.5 6.5 6.5 6.5 6.5 6.5 6.5 6.5
4.0 3.4 3.5 2.9 2.3 1.6 1.3 0.7 0.6 0.3 0.3 1.7 5.4 6.1 4.3 6.5 6.3 6.4 6.5 6.5 6.5 6.5 6.8 6.9 6.5 6.5 6.5 6.5 6.5 6.5 6.5 6.5 6.6 7.0 6.6 6.5 6.5 6.5 6.5 6.5 6.5 6.5 6.5 6.5 6.5 6.5 6.5
4.4 4.5 4.4 3.7 2.6 2.0 1.3 0.8 0.4 0.1 0.5 3.2 5.3 5.8 6.1 6.2 6.5 6.4 6.5 6.5 6.5 6.5 6.5 6.5 6.5 6.5 6.5 6.5 6.5 6.5 6.5 6.5 6.5 6.4 6.5 6.4 6.5 6.5 6.5 6.5 6.5 6.5 6.5 6.5 6.5 6.5 6.5
4.7 4.4 4.3 3.9 3.3 2.3 1.6 1.0 0.6 0.3 0.5 3.7 2.6 3.2 4.4 6.2 6.4 6.5 6.5 6.5 6.5 6.5 6.8 6.9 6.6 6.5 6.5 6.5 6.6 6.6 6.4 6.3 6.2 6.5 6.5 6.5 6.5 6.5 6.5 6.5 6.5 6.5 6.5 6.5 6.5 6.5 6.5
4.2 4.2 4.4 4.3 3.3 2.9 3.1 2.5 1.2 0.9 1.7 2.1 0.9 3.5 5.3 6.5 6.5 6.5 6.5 6.5 6.5 6.6 6.5 6.9 7.1 6.6 7.1 7.5 7.2 6.8 6.4 6.4 6.2 6.1 6.0 6.5 6.5 6.5 6.5 6.5 6.5 6.5 6.5 6.5 6.5 6.5 6.5
3.7 4.2 5.0 4.4 3.7 3.7 3.8 3.4 2.9 1.6 1.2 0.2 0.3 2.6 5.5 6.5 6.6 6.5 6.5 6.6 6.9 6.8 6.5 6.7 7.2 7.5 7.5 7.1 6.5 6.5 6.5 6.5 6.5 6.5 6.4 6.0 6.5 6.5 6.5 6.5 6.5 6.5 6.5 6.5 6.5 6.5 6.5
4.0 5.1 5.1 4.7 4.8 4.7 4.4 3.8 3.5 2.6 2.3 1.2 -0.2 0.3 4.5 5.9 6.5 6.7 6.4 6.7 6.5 6.5 6.5 6.9 7.8 7.4 7.4 6.2 6.5 6.5 6.5 6.5 6.5 6.5 6.2 6.5 6.5 6.5 6.5 6.5 6.5 6.5 6.5 6.9 4.1 6.5 5.8
5.0 5.6 5.1 5.2 5.4 5.0 4.8 4.4 3.9 3.5 3.3 1.9 0.9 1.5 4.0 6.5 6.1 6.5 6.4 6.5 6.8 6.4 6.5 6.5 7.0 6.8 7.4 6.5 6.5 6.5 6.5 6.5 6.5 6.5 6.5 6.5 6.5 6.5 6.5 6.5 6.5 6.5 6.5 6.7 6.5 6.5 6.7
5.8 5.4 5.6 6.0 5.9 5.4 5.2 5.0 4.5 4.2 3.9 2.3 1.8 3.1 3.7 6.8 7.1 7.2 7.0 6.5 6.5 6.0 6.5 6.5 6.6 6.1 5.8 6.5 6.5 6.5 6.5 6.5 6.5 6.5 6.5 6.5 6.5 6.5 6.5 6.5 6.5 6.5 6.7 6.5 6.0 6.6 7.1
5.7 6.6 6.4 6.3 6.3 5.8 5.3 5.0 4.9 4.8 4.6 5.1 3.1 4.9 4.6 4.9 7.4 6.8 6.8 6.7 6.2 7.0 6.4 6.2 6.4 6.2 5.7 6.5 6.5 6.5 6.5 6.5 6.5 6.5 6.5 6.5 6.5 6.5 6.5 6.5 5.6 6.5 6.3 7.3 7.0 6.7 7.2
Wind_Speed
7 7 8 9 9 9 10 11 11 11 12 12 13 14 15 16 16 15 15 14 14 14 13 10 7 7 4 3 4 3 5 7 7 5 4 5 6 4 5 5 2 5 6 3 4 1 5
7 9 9 10 10 11 11 12 13 13 13 14 14 15 15 15 15 15 14 13 13 12 11 7 6 5 3 2 3 4 4 4 5 5 3 6 5 5 5 4 2 4 6 8 6 7 5
6 7 9 11 11 13 13 14 15 15 15 16 16 17 16 16 15 15 15 14 12 10 8 6 5 4 3 3 2 4 1 2 4 5 3 3 4 3 7 5 6 5 6 8 11 7 4
4 6 8 10 12 13 14 15 16 17 17 17 18 18 18 17 17 17 17 15 11 8 6 5 4 4 3 1 5 0 2 1 1 2 2 2 4 5 3 4 4 3 5 4 6 9 3
4 6 9 10 12 14 15 16 17 17 18 18 18 17 18 18 17 17 17 12 7 6 5 6 4 4 5 3 1 2 4 3 2 1 2 2 3 3 3 3 4 6 4 7 3 6 4
2 5 8 11 13 14 15 16 17 18 18 19 19 18 18 18 18 16 14 6 5 7 6 5 4 2 2 2 3 3 1 3 3 3 3 3 3 2 3 4 4 4 4 6 5 7 6
1 3 6 10 12 14 16 17 17 18 19 20 21 20 19 19 19 16 10 2 2 0 6 4 4 1 3 2 2 1 3 3 3 4 3 2 2 6 9 7 6 4 7 9 8 4 7
2 4 7 9 11 13 15 17 18 19 19 20 21 21 20 20 16 16 5 3 3 2 2 1 2 3 1 1 2 4 4 3 2 5 4 2 5 5 4 5 4 6 9 9 9 10 3
1 4 7 10 12 13 14 16 18 19 20 21 20 20 20 20 13 5 6 3 3 3 3 3 2 3 2 4 4 3 5 3 3 5 4 5 5 2 3 6 6 8 8 8 10 10 5
2 4 7 9 11 13 14 15 16 18 19 19 20 19 20 20 3 3 3 3 3 3 2 3 3 2 2 1 2 2 3 1 3 3 6 7 5 3 5 7 7 7 6 7 8 8 4
4 1 4 9 11 12 13 15 16 17 18 18 19 18 17 9 4 2 3 5 2 2 3 1 3 1 1 2 1 2 1 3 3 6 2 5 4 4 6 5 7 3 7 7 6 8 9
6 3 2 6 11 13 14 15 16 16 18 17 17 15 17 5 2 2 5 4 2 2 4 3 1 1 3 1 2 4 3 3 1 4 6 9 3 3 2 9 6 6 6 9 9 5 5
7 4 3 4 8 12 13 15 16 17 16 16 15 11 7 5 2 5 3 2 2 2 1 3 1 1 3 1 2 3 5 7 4 6 4 7 5 4 2 5 5 4 4 4 4 2 9
8 4 2 6 7 9 13 15 16 18 17 16 13 8 0 4 3 3 2 1 2 2 3 1 1 4 2 4 3 1 3 4 9 5 3 3 2 4 7 5 5 6 4 3 5 4 7
8 5 2 5 9 11 12 15 16 17 17 16 11 3 2 2 1 2 2 1 2 5 3 4 3 3 4 3 2 1 5 4 4 7 4 5 3 2 7 3 2 3 5 4 5 9 6
10 5 3 4 8 10 13 14 15 16 15 14 3 2 3 3 1 2 1 2 2 3 3 2 2 1 4 4 3 1 6 1 3 5 7 2 6 6 3 5 5 5 6 4 4 5 13
12 6 3 3 7 11 13 14 15 15 11 7 3 3 2 1 1 2 2 3 4 4 4 5 5 2 3 3 2 4 5 3 3 4 4 4 4 3 9 2 5 5 4 4 2 3 4
12 7 3 3 5 9 12 15 16 15 8 1 2 2 1 1 2 1 2 4 3 3 3 1 2 3 3 3 3 2 3 5 4 3 3 4 4 4 7 12 6 10 5 3 1 4 5
13 7 3 2 5 8 11 14 16 12 4 2 2 1 1 0 2 3 4 3 5 1 4 2 3 3 1 1 2 3 5 6 5 4 4 3 2 5 2 4 3 6 5 5 6 5 11
13 8 4 0 4 7 11 13 14 8 4 1 1 1 1 1 1 2 5 4 3 4 2 3 2 1 1 2 2 1 2 3 4 2 0 2 3 5 5 6 5 7 9 8 6 1 6
13 8 4 2 4 7 10 13 13 5 2 2 2 1 1 1 1 3 3 4 5 3 2 1 2 2 1 1 1 3 3 4 6 3 4 2 4 6 7 6 8 12 11 8 4 4 2
15 10 6 3 4 6 8 13 13 1 1 1 2 3 1 2 2 5 1 2 4 3 1 2 2 5 1 2 3 3 2 3 4 5 3 3 4 5 4 10 11 11 8 11 1 3 5
17 12 8 5 4 7 8 13 14 4 2 2 0 1 1 0 1 2 1 4 4 7 3 4 3 4 3 3 5 5 5 6 5 4 4 3 3 4 6 7 8 8 1 1 3 4 2
17 13 9 6 6 8 11 11 14 9 3 2 1 1 2 2 2 1 4 4 7 2 3 3 1 2 3 4 5 5 6 6 7 7 6 4 4 5 6 6 8 1 6 5 3 5 2
18 14 10 8 7 8 10 14 12 15 8 3 2 0 2 4 6 5 8 8 7 6 5 5 4 3 3 3 3 4 3 3 7 6 6 6 2 3 2 5 6 4 3 3 3 4 6
21 16 11 9 7 8 11 11 16 12 8 4 4 2 3 5 4 6 6 5 4 4 3 3 1 3 3 2 1 3 2 3 2 5 5 6 5 3 3 6 8 3 5 8 5 2 5
22 17 13 11 9 11 11 12 15 10 12 6 3 6 2 4 4 4 3 3 3 2 3 3 2 2 1 2 3 3 2 3 2 3 4 2 3 7 8 6 3 2 9 8 4 5 10
22 19 15 12 11 12 13 13 13 12 12 6 2 11 2 3 6 9 6 7 2 3 2 1 1 1 1 1 1 1 0 1 2 2 3 1 2 2 3 2 3 6 1 2 3 7 11
24 21 17 14 12 13 16 16 16 11 9 6 4 6 10 5 5 8 11 11 8 8 2 3 1 4 2 2 3 3 3 3 3 2 4 1 2 1 1 1 3 4 7 4 7 8 10
Wind_Direction
35 13 15 19 16 10 8 5 3 355 347 345 341 341 340 338 336 333 329 326 325 326 324 322 321 323 289 223 83 50 338 334 289 310 348 339 292 312 277 354 85 229 292 11 287 222 253
27 6 3 5 4 360 359 357 353 348 342 341 341 341 340 338 334 330 327 324 322 323 322 321 315 320 247 216 288 27 352 303 6 319 16 357 10 342 277 297 280 1 321 288 270 231 231
22 1 358 359 357 355 353 353 349 345 343 342 343 341 339 336 333 329 327 323 319 316 314 314 314 289 262 67 352 334 74 46 349 6 328 44 341 302 357 273 15 289 301 277 225 206 251
6 358 355 354 351 350 351 349 348 346 344 345 344 342 341 338 335 332 326 318 307 300 300 299 299 276 61 70 323 286 294 139 83 50 39 330 314 282 242 353 238 246 236 298 347 144 136
16 359 351 348 349 349 348 348 347 345 343 343 342 342 339 337 334 330 328 316 292 287 278 278 253 242 102 169 212 0 328 337 332 200 333 290 277 303 127 233 273 197 238 241 174 183 131
23 1 351 347 349 347 345 345 345 344 343 342 340 339 336 333 331 326 323 295 294 285 237 239 261 222 154 73 43 320 55 312 307 310 240 231 228 233 222 217 225 306 282 298 273 197 206
32 359 353 351 346 346 345 343 345 344 344 343 340 337 335 333 330 318 324 227 242 175 41 31 25 344 75 86 215 139 17 299 240 232 270 181 271 227 241 223 250 347 289 275 280 250 205
359 346 346 346 346 345 345 344 344 344 344 342 339 335 333 330 327 312 288 46 55 332 195 107 115 118 85 324 194 79 311 286 219 285 155 203 232 22 17 8 342 290 273 277 279 269 289
323 335 343 342 342 344 345 345 344 343 343 342 339 335 333 328 326 333 76 61 329 296 265 118 69 37 43 305 42 55 330 354 311 297 265 265 335 86 356 306 274 258 253 273 279 291 283
182 323 331 334 339 341 343 344 344 342 343 342 338 337 334 327 329 322 56 353 320 301 178 135 157 104 186 347 147 1 30 359 239 325 333 268 70 354 298 270 270 286 350 339 325 338 260
199 225 320 329 334 337 339 341 343 343 343 340 336 333 334 348 306 35 345 320 289 243 358 62 103 60 118 316 139 123 14 247 289 321 37 272 353 353 303 285 335 260 18 317 310 297 311
200 218 288 329 330 334 338 339 340 343 341 339 334 330 333 308 98 8 323 304 257 56 251 125 63 291 236 184 123 142 209 190 131 279 231 256 234 201 308 325 293 342 308 281 252 233 271
204 228 288 324 330 331 336 337 338 339 340 335 329 323 349 323 10 330 308 252 352 162 71 100 36 346 334 45 145 2 71 41 33 16 360 333 273 111 92 287 234 183 292 319 308 163 235
204 215 285 316 329 332 334 337 337 337 338 333 323 304 246 50 318 285 233 259 257 12 81 197 257 275 278 1 114 70 206 157 49 345 294 309 307 22 20 39 324 297 285 201 267 237 286
209 205 270 315 327 333 337 337 338 337 337 330 319 203 224 72 255 253 266 259 314 20 9 347 237 253 144 149 319 158 62 43 47 11 355 351 250 8 75 355 348 338 338 346 293 286 273
201 215 262 317 327 332 334 336 338 337 339 336 293 235 111 1 252 259 254 216 101 39 324 261 284 2 339 95 310 267 144 37 92 35 335 61 292 261 61 3 297 72 346 341 310 278 261
191 196 233 311 332 330 334 333 338 335 339 348 265 276 75 61 209 242 246 58 113 68 340 355 359 315 81 6 349 306 68 70 45 23 303 14 226 333 3 268 11 335 353 353 337 272 290
189 187 218 304 343 333 334 334 337 332 336 337 292 266 327 218 283 262 44 24 317 94 17 35 10 15 343 49 302 271 72 68 54 8 343 62 299 283 277 292 78 69 44 23 152 307 321
182 183 176 319 349 340 335 339 338 334 325 321 232 52 213 123 248 153 129 81 37 34 26 9 112 4 341 73 298 32 103 130 76 27 25 32 278 314 172 53 86 74 1 336 285 262 263
176 171 165 56 4 343 339 342 340 330 301 236 289 225 159 127 243 288 145 158 122 15 65 27 101 265 185 182 98 55 177 137 90 347 13 49 257 220 246 314 327 302 309 288 268 166 301
167 165 158 112 37 353 348 349 344 317 267 280 186 115 51 128 74 58 48 125 132 148 78 327 112 329 356 200 188 216 59 143 138 137 188 270 256 263 273 310 300 282 276 291 299 311 231
162 161 159 104 47 4 6 360 356 339 167 177 165 151 130 67 330 118 25 59 148 104 324 152 270 128 230 293 18 22 91 156 254 162 238 184 273 299 277 265 265 276 281 291 282 307 284
160 158 149 118 67 28 19 19 13 357 184 106 22 89 92 136 142 262 91 112 92 120 48 30 89 157 197 49 19 356 342 323 303 286 266 230 252 293 273 302 318 286 320 13 320 77 315
157 155 143 129 85 46 31 28 30 25 351 72 67 181 142 125 73 42 114 110 117 48 123 132 73 323 50 330 298 246 239 248 247 246 228 261 267 265 280 291 278 91 48 84 14 281 63
155 148 151 124 101 67 47 41 38 46 61 84 46 6 105 104 109 99 117 106 109 81 81 118 54 43 338 289 270 260 190 205 218 218 208 209 265 290 249 279 301 113 26 23 88 307 42
155 150 142 124 103 85 61 52 45 52 68 88 50 290 69 121 35 124 125 168 144 125 157 100 105 16 313 285 263 253 259 54 149 158 187 195 193 156 301 280 281 70 6 329 85 254 5
153 145 142 132 114 95 72 59 57 50 55 92 61 5 65 102 18 352 85 110 26 62 81 129 145 204 79 263 250 248 277 61 257 293 157 216 231 233 252 280 104 22 316 285 64 265 332
145 151 146 137 118 98 77 62 58 60 60 78 80 2 77 87 48 47 39 61 22 9 128 133 106 308 265 233 340 317 131 93 341 296 12 352 348 311 349 327 289 2 257 75 263 340 338
152 146 148 134 120 103 83 64 55 55 60 64 57 20 56 81 92 95 70 45 32 28 62 6 85 28 9 1 18 360 341 356 347 281 37 51 39 285 82 134 125 352 94 72 15 344 332